Weather History for KTOP - February, 2013

Change the Weather History Date:

Tuesday, February 19, 2013

  Actual Average Record
Temperature  
Mean Temperature 30 °F 36 °F  
Max Temperature 39 °F 46 °F 77 °F (1930)
Min Temperature 20 °F 25 °F -11 °F (1978)
Degree Days  
Heating Degree Days 35 29  
Month to date heating degree days 516 608  
Since 1 July heating degree days 3224 3718  
Cooling Degree Days 0 0  
Month to date cooling degree days 0 0  
Year to date cooling degree days 0 0  
Moisture  
Dew Point 8 °F    
Average Humidity 48    
Maximum Humidity 74    
Minimum Humidity 21    
Precipitation  
Precipitation 0.00 in 0.05 in 1.38 in (1891)
Month to date precipitation 0.65 0.85  
Year to date precipitation 1.20 1.71  
Snow  
Snow 0.00 in 0.20 in 5.60 in (1938)
Month to date snowfall 1.2 3.5  
Year to date snowfall 2.7 8.4  
Since 1 July snowfall 8.1 14.9  
Snow Depth 0.00 in    
Sea Level Pressure  
Sea Level Pressure 30.30 in    
Wind  
Wind Speed 9 mph (NW)    
Max Wind Speed 24 mph    
Max Gust Speed 31 mph    
Visibility 10 miles    
Events      
T = Trace of Precipitation, MM = Missing Value Source: NWS Daily Summary

Daily Weather History Graph

Daily Weather History Graph

Search for Another Location

Airport or City:

Trip Planner

Search our weather history database for the weather conditions in past years. The results will help you decide how hot, cold, wet, or windy it might be!

Date:

Astronomy

Feb. 19, 2013 Rise Set
Actual Time 7:08 AM CST 6:04 PM CST
Civil Twilight 6:41 AM CST 6:31 PM CST
Nautical Twilight 6:10 AM CST 7:02 PM CST
Astronomical Twilight 5:39 AM CST 7:33 PM CST
Moon 12:38 PM CST (2/19) 2:39 AM CST (2/19)
Length of Visible Light 11h 50m
Length of Day
10h 56m
Waxing Gibbous, 67% of the Moon is Illuminated
Feb 19
Waxing Gibbous
Feb 25
Full
Mar 4
Last Quarter
Mar 11
New
Mar 19
First Quarter

Hourly Weather History & Observations

Time (CST) Temp. Windchill Dew Point Humidity Pressure Visibility Wind Dir Wind Speed Gust Speed Precip Events Conditions
12:53 AM 28.0 °F 20.0 °F 17.1 °F 63% 30.14 in 10.0 mi West 8.1 mph - N/A   Clear
1:53 AM 25.0 °F 20.7 °F 16.0 °F 69% 30.16 in 10.0 mi WNW 3.5 mph - N/A   Clear
2:53 AM 26.1 °F 17.6 °F 16.0 °F 66% 30.19 in 10.0 mi West 8.1 mph - N/A   Clear
3:53 AM 25.0 °F 18.1 °F 16.0 °F 69% 30.19 in 10.0 mi West 5.8 mph - N/A   Clear
4:53 AM 25.0 °F 14.8 °F 16.0 °F 69% 30.21 in 10.0 mi West 10.4 mph - N/A   Clear
5:53 AM 24.1 °F 17.0 °F 15.1 °F 69% 30.25 in 10.0 mi WNW 5.8 mph - N/A   Clear
6:53 AM 24.1 °F 13.1 °F 15.1 °F 69% 30.27 in 10.0 mi NW 11.5 mph 20.7 mph N/A   Clear
7:53 AM 23.0 °F 13.9 °F 15.1 °F 72% 30.30 in 10.0 mi NW 8.1 mph - N/A   Clear
8:53 AM 25.0 °F 14.2 °F 15.1 °F 66% 30.33 in 10.0 mi WNW 11.5 mph - N/A   Clear
9:53 AM 28.0 °F 16.5 °F 10.9 °F 49% 30.36 in 10.0 mi NW 15.0 mph - N/A   Clear
10:53 AM 30.9 °F 20.7 °F 8.1 °F 38% 30.37 in 10.0 mi North 13.8 mph - N/A   Clear
12:53 PM 34.0 °F 24.2 °F 3.9 °F 28% 30.36 in 10.0 mi West 15.0 mph 21.9 mph N/A   Clear
1:53 PM 36.0 °F 26.7 °F 3.9 °F 26% 30.34 in 10.0 mi NW 15.0 mph 20.7 mph N/A   Clear
2:53 PM 37.4 °F 28.9 °F 1.4 °F 22% 30.31 in 10.0 mi WNW 13.8 mph 19.6 mph N/A   Clear
3:53 PM 37.0 °F 31.6 °F 1.9 °F 23% 30.33 in 10.0 mi WNW 6.9 mph - N/A   Clear
4:53 PM 36.0 °F 29.0 °F -0.9 °F 21% 30.32 in 10.0 mi NNW 9.2 mph - N/A   Clear
6:53 PM 28.9 °F 23.9 °F -0.0 °F 29% 30.34 in 10.0 mi NNW 4.6 mph - N/A   Clear
7:53 PM 26.1 °F 20.5 °F 1.9 °F 35% 30.35 in 10.0 mi NE 4.6 mph - N/A   Clear
8:53 PM 25.0 °F 20.7 °F 3.0 °F 39% 30.37 in 10.0 mi Variable 3.5 mph - N/A   Clear
9:53 PM 23.0 °F 15.8 °F 3.9 °F 44% 30.35 in 10.0 mi NE 5.8 mph - N/A   Clear
10:53 PM 19.9 °F 13.4 °F 5.0 °F 52% 30.38 in 10.0 mi NNE 4.6 mph - N/A   Clear
11:53 PM 21.9 °F 17.2 °F 3.9 °F 46% 30.40 in 10.0 mi NNE 3.5 mph - N/A   Clear